Simultaneous Nadir Overpasses (SNOs) Predictions

Prediction of SNOs between GOES-16 and AQUA Satellite Orbit:

Table of predicted SNOs for the next 14.0 days since TLE Epoch: 2/29/2020
Index Date Time (GOES-16) GOES-16 Lat,Lon AQUA Lat,Lon Distance(km) Time Diff (sec)
1 03/01/2020 06:38:34 0.05, -75.17 0.07, -75.36 22.11 80
2 03/03/2020 06:23:43 0.05, -75.18 -0.51, -72.40 315.29 80
3 03/03/2020 18:45:07 -0.06, -75.18 -0.60, -77.59 274.13 80
4 03/05/2020 18:35:37 -0.06, -75.20 0.06, -74.64 63.55 80
5 03/07/2020 18:23:27 -0.07, -75.21 0.72, -71.69 401.61 80
6 03/08/2020 06:44:43 0.07, -75.22 0.40, -76.84 184.70 80
7 03/10/2020 06:29:52 0.07, -75.24 -0.20, -73.88 154.06 80
8 03/10/2020 18:51:16 -0.07, -75.25 -0.89, -79.07 435.04 80
9 03/12/2020 06:17:42 0.07, -75.27 -0.86, -70.93 493.41 80
10 03/12/2020 18:39:06 -0.07, -75.28 -0.22, -76.12 95.49 80




NCC Satellite Simultaneous Nadir Overpasses (SNOs) Prediction Service
